RYR34GF EGCC-LGKR

Flight info

Callsign RYR34GF
Flight time N/A
Altitude 35000
Route SONEX L975 DESIG L603 DOLAS DCT NAVPI DCT DODEN DCT NEGIX DCT DINKU M867 XERUM DCT BAVAX DCT RADIZ DCT MODRO DCT DARZA DCT DEPET DCT UNIPA DCT VAKSU DCT RODON DCT LIMJA N732 PITAS
Aircraft B738/M-SDE2E3FGHIRWXY/LB1

Departure

Time N/A
Airport Manchester Airport (EGCC)

Arrival

Time 2026-04-28 07:57
Airport Corfu Ioannis Kapodistrias International Airport (LGKR)
Time Latitude Longitude Altitude Speed Heading
2026-04-28 06:36 46.71720 13.61729 37113 ft 474 kts 144°
2026-04-28 06:36 46.66697 13.67551 37108 ft 473 kts 145°
2026-04-28 06:37 46.61539 13.73511 37110 ft 474 kts 145°
2026-04-28 06:37 46.56428 13.79404 37101 ft 472 kts 145°
2026-04-28 06:38 46.51238 13.85378 37103 ft 472 kts 145°
2026-04-28 06:38 46.46073 13.91307 37103 ft 473 kts 145°
2026-04-28 06:39 46.40900 13.97228 37098 ft 472 kts 145°
2026-04-28 06:39 46.35730 14.03127 37098 ft 471 kts 145°
2026-04-28 06:40 46.30529 14.09049 37096 ft 472 kts 144°
2026-04-28 06:40 46.25325 14.14963 37095 ft 471 kts 144°
2026-04-28 06:41 46.20157 14.20819 37093 ft 471 kts 144°
2026-04-28 06:41 46.14980 14.26673 37100 ft 472 kts 144°
2026-04-28 06:42 46.09785 14.32530 37092 ft 471 kts 144°
2026-04-28 06:42 46.04602 14.38359 37096 ft 471 kts 144°
2026-04-28 06:43 45.99457 14.44216 37098 ft 471 kts 144°
2026-04-28 06:43 45.94305 14.50108 37096 ft 471 kts 143°
2026-04-28 06:44 45.89156 14.55989 37087 ft 470 kts 143°
2026-04-28 06:44 45.83987 14.61874 37088 ft 470 kts 143°
2026-04-28 06:45 45.78856 14.67694 37087 ft 469 kts 144°
2026-04-28 06:45 45.73699 14.73525 37090 ft 470 kts 144°
2026-04-28 06:46 45.68547 14.79334 37093 ft 469 kts 144°
2026-04-28 06:46 45.63372 14.85153 37092 ft 469 kts 144°
2026-04-28 06:47 45.58241 14.90909 37094 ft 470 kts 144°
2026-04-28 06:47 45.53072 14.96691 37093 ft 469 kts 144°
2026-04-28 06:48 45.47926 15.02463 37093 ft 470 kts 143°
2026-04-28 06:48 45.42849 15.08466 37092 ft 469 kts 141°
2026-04-28 06:49 45.37896 15.14464 37095 ft 469 kts 141°
2026-04-28 06:49 45.32876 15.20528 37091 ft 468 kts 141°
2026-04-28 06:50 45.27908 15.26482 37090 ft 468 kts 141°
2026-04-28 06:50 45.22890 15.32460 37088 ft 468 kts 141°
2026-04-28 06:51 45.17895 15.38385 37088 ft 467 kts 141°
2026-04-28 06:51 45.12893 15.44302 37089 ft 467 kts 141°
2026-04-28 06:52 45.07905 15.50187 37086 ft 467 kts 141°
2026-04-28 06:52 45.02903 15.56075 37088 ft 467 kts 141°
2026-04-28 06:53 44.97875 15.61979 37082 ft 466 kts 141°
2026-04-28 06:53 44.92854 15.67861 37084 ft 465 kts 142°
2026-04-28 06:54 44.87857 15.73702 37083 ft 465 kts 142°
2026-04-28 06:54 44.82869 15.79519 37083 ft 464 kts 142°
2026-04-28 06:55 44.77895 15.85305 37084 ft 463 kts 142°
2026-04-28 06:55 44.72905 15.91097 37083 ft 464 kts 142°
2026-04-28 06:56 44.67818 15.96795 37083 ft 463 kts 146°
2026-04-28 06:56 44.62391 16.01637 37088 ft 462 kts 152°
2026-04-28 06:57 44.56800 16.06050 37093 ft 463 kts 153°
2026-04-28 06:57 44.51131 16.10440 37102 ft 462 kts 153°
2026-04-28 06:58 44.45529 16.14807 37102 ft 461 kts 153°
2026-04-28 06:58 44.39898 16.19228 37107 ft 461 kts 152°
2026-04-28 06:59 44.34290 16.23644 37113 ft 461 kts 152°
2026-04-28 06:59 44.28698 16.28051 37111 ft 462 kts 152°
2026-04-28 07:00 44.23096 16.32460 37113 ft 462 kts 152°
2026-04-28 07:00 44.17487 16.36867 37111 ft 461 kts 152°
2026-04-28 07:01 44.11914 16.41236 37111 ft 461 kts 152°
2026-04-28 07:01 44.06296 16.45630 37119 ft 461 kts 152°
2026-04-28 07:02 44.00824 16.50222 37119 ft 462 kts 146°
2026-04-28 07:02 43.95636 16.55543 37121 ft 462 kts 143°
2026-04-28 07:03 43.90570 16.61042 37117 ft 462 kts 142°
2026-04-28 07:03 43.85501 16.66515 37119 ft 461 kts 143°
2026-04-28 07:04 43.80435 16.71904 37102 ft 460 kts 143°
2026-04-28 07:04 43.75287 16.77322 37103 ft 461 kts 144°
2026-04-28 07:05 43.70187 16.82658 37104 ft 461 kts 144°
2026-04-28 07:05 43.65066 16.87997 37108 ft 460 kts 144°
2026-04-28 07:06 43.59951 16.93317 37104 ft 460 kts 144°
2026-04-28 07:06 43.54896 16.98562 37113 ft 460 kts 144°
2026-04-28 07:07 43.49795 17.03843 37108 ft 460 kts 144°
2026-04-28 07:07 43.44675 17.09132 37099 ft 459 kts 143°
2026-04-28 07:08 43.39572 17.14392 37093 ft 459 kts 143°
2026-04-28 07:08 43.34466 17.19644 37092 ft 459 kts 143°
2026-04-28 07:09 43.29336 17.24909 37088 ft 458 kts 144°
2026-04-28 07:09 43.24224 17.30145 37088 ft 459 kts 143°
2026-04-28 07:10 43.19128 17.35353 37081 ft 459 kts 143°
2026-04-28 07:10 43.14007 17.40575 37068 ft 458 kts 143°
2026-04-28 07:11 43.08870 17.45803 37062 ft 457 kts 143°
2026-04-28 07:11 43.03795 17.50957 37067 ft 457 kts 143°
2026-04-28 07:12 42.98677 17.56143 37066 ft 457 kts 143°
2026-04-28 07:12 42.93542 17.61335 37073 ft 457 kts 143°
2026-04-28 07:13 42.88404 17.66519 37069 ft 458 kts 144°
2026-04-28 07:13 42.83274 17.71686 37069 ft 457 kts 144°
2026-04-28 07:14 42.78164 17.76820 37068 ft 457 kts 144°
2026-04-28 07:14 42.73021 17.81976 37077 ft 457 kts 144°
2026-04-28 07:15 42.67910 17.87090 37078 ft 457 kts 144°
2026-04-28 07:15 42.62770 17.92221 37084 ft 456 kts 144°
2026-04-28 07:16 42.57641 17.97332 37080 ft 457 kts 144°
2026-04-28 07:16 42.52501 18.02442 37066 ft 457 kts 144°
2026-04-28 07:17 42.47377 18.07525 37065 ft 456 kts 144°
2026-04-28 07:17 42.42260 18.12592 37066 ft 457 kts 144°
2026-04-28 07:18 42.37109 18.17682 37061 ft 457 kts 143°
2026-04-28 07:18 42.31986 18.22734 37067 ft 456 kts 143°
2026-04-28 07:19 42.26828 18.27807 37069 ft 455 kts 143°
2026-04-28 07:19 42.21705 18.32838 37065 ft 456 kts 143°
2026-04-28 07:20 42.16569 18.37871 37070 ft 456 kts 143°
2026-04-28 07:20 42.11425 18.42901 37067 ft 455 kts 143°
2026-04-28 07:21 42.06301 18.47902 37067 ft 456 kts 143°
2026-04-28 07:21 42.01156 18.52915 37066 ft 455 kts 143°
2026-04-28 07:22 41.93592 18.60659 37071 ft 455 kts 141°
2026-04-28 07:22 41.88581 18.65921 37068 ft 455 kts 142°
2026-04-28 07:23 41.83591 18.71137 37074 ft 454 kts 142°
2026-04-28 07:23 41.78572 18.76351 37068 ft 455 kts 142°
2026-04-28 07:24 41.73535 18.81558 37069 ft 454 kts 142°
2026-04-28 07:24 41.68509 18.86739 37073 ft 455 kts 142°
2026-04-28 07:25 41.63481 18.91908 37070 ft 455 kts 142°
2026-04-28 07:25 41.58443 18.97076 37067 ft 455 kts 142°
2026-04-28 07:26 41.53400 19.02237 37066 ft 454 kts 142°
2026-04-28 07:26 41.48358 19.07323 37068 ft 454 kts 144°
2026-04-28 07:27 41.42919 19.11565 37072 ft 454 kts 156°
2026-04-28 07:27 41.37033 19.14667 37064 ft 454 kts 161°
2026-04-28 07:28 41.31059 19.17462 37074 ft 453 kts 161°
2026-04-28 07:28 41.25101 19.20240 37072 ft 453 kts 161°
2026-04-28 07:29 41.19166 19.23051 37061 ft 452 kts 160°
2026-04-28 07:29 41.13220 19.25901 37048 ft 451 kts 160°
2026-04-28 07:30 41.10259 19.27326 36742 ft 447 kts 160°
2026-04-28 07:30 41.07376 19.28717 36336 ft 442 kts 160°
2026-04-28 07:30 41.04481 19.30114 35912 ft 439 kts 160°
2026-04-28 07:30 41.01610 19.31500 35496 ft 435 kts 160°
2026-04-28 07:31 40.98773 19.32869 35031 ft 433 kts 160°
2026-04-28 07:31 40.95951 19.34231 34564 ft 432 kts 159°
2026-04-28 07:31 40.93129 19.35591 34058 ft 429 kts 159°
2026-04-28 07:31 40.90316 19.36946 33581 ft 426 kts 159°
2026-04-28 07:32 40.87553 19.38276 33119 ft 423 kts 160°
2026-04-28 07:32 40.84779 19.39610 32648 ft 419 kts 160°
2026-04-28 07:32 40.82061 19.40916 32190 ft 416 kts 160°
2026-04-28 07:32 40.79348 19.42218 31729 ft 412 kts 160°
2026-04-28 07:33 40.76626 19.43523 31265 ft 409 kts 160°
2026-04-28 07:33 40.73957 19.44802 30810 ft 406 kts 160°
2026-04-28 07:33 40.71313 19.46068 30351 ft 402 kts 160°
2026-04-28 07:33 40.68692 19.47321 29889 ft 399 kts 160°
2026-04-28 07:34 40.66090 19.48565 29437 ft 396 kts 160°
2026-04-28 07:34 40.63502 19.49801 28991 ft 392 kts 160°
2026-04-28 07:34 40.60941 19.51022 28538 ft 389 kts 160°
2026-04-28 07:34 40.58388 19.52240 28090 ft 385 kts 160°
2026-04-28 07:35 40.55874 19.53437 27641 ft 382 kts 160°
2026-04-28 07:35 40.53394 19.54616 27151 ft 381 kts 160°
2026-04-28 07:35 40.50885 19.55808 26698 ft 377 kts 160°
2026-04-28 07:35 40.48423 19.56976 26255 ft 374 kts 160°
2026-04-28 07:36 40.45967 19.58140 25818 ft 371 kts 160°
2026-04-28 07:36 40.43537 19.59292 25383 ft 368 kts 160°
2026-04-28 07:36 40.41131 19.60430 24952 ft 365 kts 160°
2026-04-28 07:36 40.38760 19.61552 24517 ft 362 kts 160°
2026-04-28 07:37 40.36371 19.62681 24083 ft 360 kts 159°
2026-04-28 07:37 40.34012 19.63796 23655 ft 357 kts 160°
2026-04-28 07:37 40.31663 19.64904 23230 ft 354 kts 159°
2026-04-28 07:37 40.29356 19.65992 22809 ft 352 kts 160°
2026-04-28 07:38 40.27048 19.67080 22384 ft 350 kts 160°
2026-04-28 07:38 40.24732 19.68171 21960 ft 348 kts 160°
2026-04-28 07:38 40.22454 19.69243 21533 ft 346 kts 160°
2026-04-28 07:38 40.20202 19.70303 21110 ft 344 kts 160°
2026-04-28 07:39 40.17930 19.71371 20683 ft 342 kts 160°
2026-04-28 07:39 40.15685 19.72425 20261 ft 340 kts 160°
2026-04-28 07:39 40.13465 19.73467 19844 ft 338 kts 160°
2026-04-28 07:39 40.11233 19.74513 19421 ft 336 kts 160°
2026-04-28 07:40 40.09005 19.75557 19003 ft 334 kts 160°
2026-04-28 07:40 40.06821 19.76580 18672 ft 330 kts 160°
2026-04-28 07:40 40.04668 19.77588 18284 ft 328 kts 160°
2026-04-28 07:40 40.02519 19.78594 17881 ft 326 kts 160°
2026-04-28 07:41 40.00378 19.79596 17471 ft 325 kts 160°
2026-04-28 07:41 39.98226 19.80601 17057 ft 325 kts 160°
2026-04-28 07:41 39.96104 19.81592 16646 ft 323 kts 160°
2026-04-28 07:41 39.93974 19.82585 16246 ft 322 kts 160°
2026-04-28 07:42 39.91865 19.83568 15847 ft 320 kts 160°
2026-04-28 07:42 39.89777 19.84540 15441 ft 319 kts 160°
2026-04-28 07:42 39.87648 19.85325 15064 ft 316 kts 174°
2026-04-28 07:42 39.85512 19.85018 14857 ft 305 kts 204°
2026-04-28 07:43 39.83857 19.83439 14713 ft 290 kts 236°
2026-04-28 07:43 39.83058 19.81030 14337 ft 298 kts 264°
2026-04-28 07:43 39.82966 19.78292 13883 ft 303 kts 272°
2026-04-28 07:43 39.82935 19.75554 13491 ft 303 kts 269°
2026-04-28 07:44 39.82640 19.72842 13115 ft 301 kts 257°
2026-04-28 07:44 39.81899 19.70290 12754 ft 301 kts 243°
2026-04-28 07:44 39.80771 19.68001 12354 ft 301 kts 232°
2026-04-28 07:44 39.79353 19.66045 11974 ft 300 kts 223°
2026-04-28 07:45 39.77748 19.64274 11569 ft 299 kts 221°
2026-04-28 07:45 39.76349 19.62299 11184 ft 297 kts 235°
2026-04-28 07:45 39.75269 19.60029 10809 ft 295 kts 241°
2026-04-28 07:45 39.74265 19.57700 10421 ft 294 kts 240°
2026-04-28 07:46 39.73231 19.55409 10057 ft 292 kts 238°
2026-04-28 07:46 39.72105 19.53242 9830 ft 285 kts 229°
2026-04-28 07:46 39.70565 19.51653 9423 ft 281 kts 202°
2026-04-28 07:46 39.68694 19.50922 9094 ft 276 kts 189°
2026-04-28 07:47 39.66804 19.50517 8745 ft 275 kts 187°
2026-04-28 07:47 39.64895 19.50213 8403 ft 273 kts 185°
2026-04-28 07:47 39.63019 19.49985 8070 ft 271 kts 184°
2026-04-28 07:47 39.61118 19.49838 7728 ft 269 kts 180°
2026-04-28 07:48 39.59259 19.49892 7443 ft 264 kts 172°
2026-04-28 07:48 39.57581 19.50723 7240 ft 253 kts 139°
2026-04-28 07:48 39.56549 19.52499 7054 ft 243 kts 110°
2026-04-28 07:48 39.56208 19.54610 6802 ft 238 kts 91°
2026-04-28 07:49 39.56323 19.56741 6537 ft 235 kts 82°
2026-04-28 07:49 39.56590 19.58825 6311 ft 231 kts 80°
2026-04-28 07:49 39.56887 19.60869 6082 ft 227 kts 80°
2026-04-28 07:49 39.57172 19.62899 5851 ft 226 kts 81°
2026-04-28 07:50 39.57433 19.64923 5575 ft 227 kts 82°
2026-04-28 07:50 39.57681 19.66925 5350 ft 225 kts 82°
2026-04-28 07:50 39.57927 19.68918 5143 ft 225 kts 82°
2026-04-28 07:50 39.58174 19.70907 4901 ft 222 kts 82°
2026-04-28 07:51 39.58421 19.72907 4576 ft 222 kts 82°
2026-04-28 07:51 39.58664 19.74880 4280 ft 221 kts 81°
2026-04-28 07:51 39.58904 19.76837 3985 ft 220 kts 81°
2026-04-28 07:51 39.59148 19.78819 3691 ft 219 kts 81°
2026-04-28 07:52 39.59385 19.80747 3424 ft 215 kts 81°
2026-04-28 07:52 39.59622 19.82666 3116 ft 212 kts 81°
2026-04-28 07:52 39.59851 19.84530 2839 ft 208 kts 81°
2026-04-28 07:52 39.60079 19.86375 2566 ft 205 kts 81°
2026-04-28 07:53 39.60305 19.88200 2294 ft 202 kts 81°
2026-04-28 07:53 39.60525 19.89979 2032 ft 199 kts 81°
2026-04-28 07:53 39.60746 19.91741 1830 ft 192 kts 81°
2026-04-28 07:53 39.61053 19.93412 1619 ft 186 kts 64°
2026-04-28 07:54 39.61921 19.94553 1481 ft 175 kts 22°
2026-04-28 07:54 39.63037 19.94690 1501 ft 151 kts 353°
2026-04-28 07:54 39.64057 19.94437 1494 ft 148 kts 341°
2026-04-28 07:54 39.64908 19.93698 1299 ft 151 kts 306°
2026-04-28 07:55 39.65157 19.92432 1084 ft 146 kts 261°
2026-04-28 07:55 39.64766 19.91216 1039 ft 147 kts 232°
2026-04-28 07:55 39.63953 19.90443 786 ft 146 kts 194°
2026-04-28 07:55 39.62964 19.90471 505 ft 142 kts 165°
2026-04-28 07:56 39.61995 19.90740 266 ft 139 kts 166°
2026-04-28 07:56 39.61046 19.90993 69 ft 139 kts 166°
2026-04-28 07:56 39.60129 19.91232 6 ft 107 kts 169°
2026-04-28 07:56 39.59623 19.91364 9 ft 58 kts 167°
2026-04-28 07:57 39.59304 19.91443 9 ft 31 kts 169°
2026-04-28 07:57 39.59173 19.91448 9 ft 11 kts 166°
2026-04-28 07:57 39.59191 19.91489 9 ft 9 kts 351°
2026-04-28 07:57 39.59288 19.91452 9 ft 19 kts 344°
2026-04-28 07:58 39.59436 19.91410 9 ft 23 kts 349°
2026-04-28 07:58 39.59618 19.91363 9 ft 30 kts 349°
2026-04-28 07:58 39.59821 19.91312 9 ft 28 kts 349°
2026-04-28 07:58 39.60014 19.91260 7 ft 28 kts 348°
2026-04-28 07:59 39.60208 19.91212 6 ft 28 kts 350°
2026-04-28 07:59 39.60399 19.91165 6 ft 26 kts 348°
2026-04-28 07:59 39.60567 19.91187 6 ft 19 kts 34°
2026-04-28 07:59 39.60646 19.91229 6 ft 12 kts 351°
2026-04-28 08:00 39.60732 19.91210 7 ft 8 kts 15°
2026-04-28 08:00 39.60755 19.91275 8 ft 8 kts 77°
2026-04-28 08:00 39.60764 19.91332 8 ft 0 kts 78°